Copenhagen, Denmark

2:32 PM CET on January 17, 2018 (GMT +0100)
Kastrup

Weather History for EKCH - November, 2013

Change the Weather History Date:

Wednesday, November 13, 2013

  Actual Average Record
Temperature  
Mean Temperature 44 °F -  
Max Temperature 48 °F 42 °F 54 °F (2015)
Min Temperature 40 °F 32 °F 26 °F (2016)
Degree Days  
Heating Degree Days 21    
Moisture  
Dew Point 40 °F    
Average Humidity 85    
Maximum Humidity 100    
Minimum Humidity 63    
Precipitation  
Precipitation 0.00 in - - ()
Sea Level Pressure  
Sea Level Pressure 30.20 in    
Wind  
Wind Speed 11 mph ()    
Max Wind Speed 22 mph    
Max Gust Speed -    
Visibility 8.1 miles    
Events      
Averages and records for this station are not official NWS values.
T = Trace of Precipitation, MM = Missing Value Source: Averaged Metar Reports

Daily Weather History Graph

Daily Weather History Graph

Search for Another Location

Airport or City:

Trip Planner

Search our weather history database for the weather conditions in past years. The results will help you decide how hot, cold, wet, or windy it might be!

Date:

Astronomy

Nov. 13, 2013 Rise Set
Actual Time 7:40 AM CET 4:06 PM CET
Civil Twilight 6:58 AM CET 4:47 PM CET
Nautical Twilight 6:13 AM CET 5:32 PM CET
Astronomical Twilight 5:30 AM CET 6:15 PM CET
Moon 2:22 PM CET (11/13) 2:31 AM CET (11/13)
Length of Visible Light 9h 48m
Length of Day
8h 26m
Waxing Gibbous, 82% of the Moon is Illuminated
Nov 13
Waxing Gibbous
Nov 17
Full
Nov 25
Last Quarter
Dec 3
New
Dec 9
First Quarter

Hourly Weather History & Observations

Time (CET) Temp. Windchill Dew Point Humidity Pressure Visibility Wind Dir Wind Speed Gust Speed Precip Events Conditions
12:20 AM 44.6 °F 40.2 °F 42.8 °F 93% 30.12 in 6.2 mi West 8.1 mph - N/A   Scattered Clouds
12:50 AM 44.6 °F 40.7 °F 42.8 °F 93% 30.12 in 6.2 mi West 6.9 mph - N/A   Partly Cloudy
1:00 AM 44 °F - 43 °F 93% 30.15 in 7 mi West 8.1 mph - -   Scattered Clouds
1:20 AM 42.8 °F 37.5 °F 42.8 °F 100% 30.15 in - West 9.2 mph - N/A   Clear
1:50 AM 42.8 °F 38.0 °F 42.8 °F 100% 30.15 in - West 8.1 mph - N/A   Clear
2:20 AM 42.8 °F 38.0 °F 41.0 °F 93% 30.15 in - West 8.1 mph - N/A   Clear
2:50 AM 41.0 °F 35.2 °F 41.0 °F 100% 30.15 in - WSW 9.2 mph - N/A   Clear
3:20 AM 42.8 °F 37.0 °F 41.0 °F 93% 30.15 in - West 10.4 mph - N/A   Clear
3:50 AM 42.8 °F 37.0 °F 41.0 °F 93% 30.15 in - West 10.4 mph - N/A   Clear
4:00 AM 42 °F - 40 °F 91% 30.17 in 7 mi West 11.5 mph - -   Clear
4:20 AM 41.0 °F 34.7 °F 41.0 °F 100% 30.15 in - WSW 10.4 mph - N/A   Clear
4:50 AM 42.8 °F 37.5 °F 41.0 °F 93% 30.15 in 6.2 mi WSW 9.2 mph - N/A   Partly Cloudy
5:20 AM 41.0 °F 34.7 °F 41.0 °F 100% 30.15 in 6.2 mi West 10.4 mph - N/A   Partly Cloudy
5:50 AM 41.0 °F 34.3 °F 41.0 °F 100% 30.15 in 6.2 mi WSW 11.5 mph - N/A   Partly Cloudy
6:20 AM 42.8 °F 36.2 °F 41.0 °F 93% 30.15 in 6.2 mi WSW 12.7 mph - N/A   Partly Cloudy
6:50 AM 42.8 °F 35.8 °F 39.2 °F 87% 30.15 in 6.2 mi WSW 13.8 mph - N/A   Partly Cloudy
7:00 AM 42 °F - 40 °F 88% 30.19 in 12 mi West 13.8 mph - -   Scattered Clouds
7:20 AM 42.8 °F 35.8 °F 39.2 °F 87% 30.18 in - West 13.8 mph - N/A   Clear
7:50 AM 42.8 °F 36.6 °F 39.2 °F 87% 30.18 in - West 11.5 mph - N/A   Clear
8:20 AM 42.8 °F 36.6 °F 39.2 °F 87% 30.18 in - West 11.5 mph - N/A   Clear
8:50 AM 42.8 °F 36.6 °F 39.2 °F 87% 30.18 in - WSW 11.5 mph - N/A   Clear
9:20 AM 44.6 °F 38.1 °F 39.2 °F 81% 30.21 in - WSW 13.8 mph - N/A   Clear
9:50 AM 44.6 °F 38.1 °F 39.2 °F 81% 30.21 in - WSW 13.8 mph - N/A   Clear
10:00 AM 44 °F - 40 °F 82% 30.22 in 19 mi WSW 13.8 mph - -  
10:20 AM 44.6 °F 38.1 °F 39.2 °F 81% 30.21 in - WSW 13.8 mph - N/A   Clear
10:50 AM 46.4 °F 39.8 °F 41.0 °F 81% 30.21 in - West 16.1 mph - N/A   Clear
11:20 AM 46.4 °F 39.5 °F 41.0 °F 81% 30.21 in 6.2 mi West 17.3 mph - N/A   Partly Cloudy
11:50 AM 48.2 °F - 41.0 °F 76% 30.21 in 6.2 mi West 19.6 mph - N/A   Partly Cloudy
12:20 PM 48.2 °F - 41.0 °F 76% 30.21 in 6.2 mi West 20.7 mph - N/A   Partly Cloudy
12:50 PM 48.2 °F - 39.2 °F 71% 30.21 in 6.2 mi West 18.4 mph - N/A   Partly Cloudy
1:00 PM 48 °F - 39 °F 63% 30.22 in 19 mi West 17.3 mph - -   Scattered Clouds
1:20 PM 48.2 °F - 39.2 °F 71% 30.21 in 6.2 mi West 18.4 mph - N/A   Partly Cloudy
1:50 PM 48.2 °F - 39.2 °F 71% 30.21 in 6.2 mi West 21.9 mph - N/A   Partly Cloudy
2:20 PM 48.2 °F - 39.2 °F 71% 30.21 in 6.2 mi West 19.6 mph - N/A   Partly Cloudy
2:50 PM 48.2 °F - 39.2 °F 71% 30.21 in 6.2 mi West 20.7 mph - N/A   Partly Cloudy
3:20 PM 48.2 °F - 39.2 °F 71% 30.21 in 6.2 mi West 16.1 mph - N/A   Mostly Cloudy
3:50 PM 46.4 °F 40.4 °F 39.2 °F 76% 30.21 in 6.2 mi West 13.8 mph - N/A   Partly Cloudy
4:00 PM 46 °F - 39 °F 70% 30.23 in 19 mi West 15.0 mph - -   Scattered Clouds
4:20 PM 46.4 °F 40.4 °F 39.2 °F 76% 30.21 in 6.2 mi West 13.8 mph - N/A   Partly Cloudy
4:50 PM 44.6 °F 38.4 °F 39.2 °F 81% 30.24 in 6.2 mi West 12.7 mph - N/A   Partly Cloudy
5:20 PM 44.6 °F 38.8 °F 39.2 °F 81% 30.24 in 6.2 mi West 11.5 mph - N/A   Partly Cloudy
5:50 PM 44.6 °F 38.4 °F 39.2 °F 81% 30.24 in - West 12.7 mph - N/A   Clear
6:20 PM 44.6 °F 38.8 °F 39.2 °F 81% 30.24 in - West 11.5 mph - N/A   Clear
6:50 PM 42.8 °F 36.2 °F 39.2 °F 87% 30.21 in - West 12.7 mph - N/A   Clear
7:00 PM 44 °F - 39 °F 78% 30.24 in 16 mi West 11.5 mph - -   Scattered Clouds
7:20 PM 44.6 °F 39.7 °F 39.2 °F 81% 30.21 in 6.2 mi WSW 9.2 mph - N/A   Partly Cloudy
7:50 PM 44.6 °F 40.2 °F 41.0 °F 87% 30.24 in 6.2 mi WSW 8.1 mph - N/A   Scattered Clouds
8:20 PM 44.6 °F 39.2 °F 41.0 °F 87% 30.24 in 6.2 mi WSW 10.4 mph - N/A   Partly Cloudy
8:50 PM 44.6 °F 38.4 °F 41.0 °F 87% 30.24 in 6.2 mi WSW 12.7 mph - N/A   Partly Cloudy
9:20 PM 44.6 °F 38.8 °F 41.0 °F 87% 30.24 in 6.2 mi WSW 11.5 mph - N/A   Mostly Cloudy
9:50 PM 42.8 °F 37.5 °F 41.0 °F 93% 30.24 in 6.2 mi WSW 9.2 mph - N/A   Scattered Clouds
10:00 PM 43 °F - 40 °F 85% 30.24 in 16 mi WSW 10.4 mph - -   Scattered Clouds
10:20 PM 42.8 °F 37.5 °F 39.2 °F 87% 30.21 in - WSW 9.2 mph - N/A   Clear
10:50 PM 41.0 °F 35.2 °F 39.2 °F 93% 30.21 in - WSW 9.2 mph - N/A   Clear
11:20 PM 42.8 °F 37.5 °F 39.2 °F 87% 30.21 in - WSW 9.2 mph - N/A   Clear
11:50 PM 41.0 °F 35.2 °F 39.2 °F 93% 30.21 in - WSW 9.2 mph - N/A   Clear